Chicopee, MA

2:13 PM EDT on May 26, 2017 (GMT -0400)
Westover Air Reserve Base / Metropolitan Airport

Weather History for KCEF - October, 2011

Change the Weather History Date:

Tuesday, October 25, 2011

  Actual Average Record
Temperature  
Mean Temperature 46 °F -  
Max Temperature 58 °F 55 °F 77 °F (2001)
Min Temperature 35 °F 35 °F 23 °F (2003)
Degree Days  
Heating Degree Days 18    
Moisture  
Dew Point 41 °F    
Average Humidity 91    
Maximum Humidity 100    
Minimum Humidity 41    
Precipitation  
Precipitation 0.01 in - - ()
Sea Level Pressure  
Sea Level Pressure 29.95 in    
Wind  
Wind Speed 2 mph (WSW)    
Max Wind Speed 23 mph    
Max Gust Speed 34 mph    
Visibility 3 miles    
Events Fog    
Averages and records for this station are not official NWS values.
T = Trace of Precipitation, MM = Missing Value Source: NWS Daily Summary

Daily Weather History Graph

Daily Weather History Graph

Search for Another Location

Airport or City:

Trip Planner

Search our weather history database for the weather conditions in past years. The results will help you decide how hot, cold, wet, or windy it might be!

Date:

Astronomy

Oct. 25, 2011 Rise Set
Actual Time 7:14 AM EDT 5:53 PM EDT
Civil Twilight 6:45 AM EDT 6:22 PM EDT
Nautical Twilight 6:12 AM EDT 6:54 PM EDT
Astronomical Twilight 5:40 AM EDT 7:27 PM EDT
Moon 5:42 AM EDT (10/25) 4:53 PM EDT (10/25)
Length of Visible Light 11h 36m
Length of Day
10h 39m
Waning Crescent, 2% of the Moon is Illuminated
Oct 25
Waning Crescent
Oct 26
New
Nov 2
First Quarter
Nov 10
Full
Nov 18
Last Quarter

Hourly Weather History & Observations

Time (EDT) Temp. Windchill Dew Point Humidity Pressure Visibility Wind Dir Wind Speed Gust Speed Precip Events Conditions
12:55 AM 49.3 °F - 48.7 °F 98% 29.94 in 2.5 mi Calm Calm - 0.00 in   Mostly Cloudy
1:01 AM 50.0 °F - 50.0 °F 100% 29.94 in 3.0 mi Calm Calm - N/A   Mostly Cloudy
1:08 AM 48.2 °F - 48.2 °F 100% 29.94 in 2.0 mi Calm Calm - N/A   Overcast
1:09 AM 48.2 °F - 48.2 °F 100% 29.94 in 1.8 mi Calm Calm - N/A   Overcast
1:10 AM 48.2 °F - 48.2 °F 100% 29.94 in 1.2 mi Calm Calm - N/A   Overcast
1:11 AM 48.2 °F - 48.2 °F 100% 29.94 in 1.0 mi Calm Calm - N/A   Overcast
1:13 AM 48.2 °F - 48.2 °F 100% 29.94 in 0.8 mi Calm Calm - N/A   Overcast
1:16 AM 48.2 °F - 48.2 °F 100% 29.94 in 0.8 mi Calm Calm - N/A   Overcast
1:17 AM 50.0 °F - 48.2 °F 94% 29.94 in 0.8 mi Calm Calm - N/A   Overcast
1:22 AM 50.0 °F - 48.2 °F 94% 29.94 in 0.8 mi Calm Calm - N/A   Overcast
1:23 AM 50.0 °F - 48.2 °F 94% 29.94 in 0.8 mi Calm Calm - N/A   Overcast
1:24 AM 50.0 °F - 48.2 °F 94% 29.94 in 0.8 mi Calm Calm - N/A   Overcast
1:25 AM 50.0 °F - 48.2 °F 94% 29.94 in 1.0 mi Calm Calm - N/A   Overcast
1:30 AM 48.2 °F - 48.2 °F 100% 29.94 in 1.2 mi Calm Calm - N/A   Mostly Cloudy
1:34 AM 48.2 °F - 48.2 °F 100% 29.94 in 1.0 mi Calm Calm - N/A   Mostly Cloudy
1:35 AM 48.2 °F - 48.2 °F 100% 29.93 in 0.8 mi Calm Calm - N/A   Mostly Cloudy
1:36 AM 48.2 °F - 48.2 °F 100% 29.93 in 0.5 mi South 3.5 mph - N/A Fog Fog
1:37 AM 48.2 °F - 48.2 °F 100% 29.93 in 0.5 mi South 3.5 mph - N/A Fog Fog
1:38 AM 48.2 °F - 46.4 °F 93% 29.93 in 0.2 mi South 3.5 mph - N/A Fog Fog
1:41 AM 46.4 °F 45.2 °F 46.4 °F 100% 29.93 in 0.2 mi South 3.5 mph - N/A Fog Fog
1:42 AM 46.4 °F 45.2 °F 46.4 °F 100% 29.93 in 0.2 mi South 3.5 mph - N/A Fog Fog
1:43 AM 46.4 °F 45.2 °F 46.4 °F 100% 29.93 in 0.2 mi South 3.5 mph - N/A Fog Fog
1:44 AM 46.4 °F 45.2 °F 46.4 °F 100% 29.93 in 0.2 mi SSW 3.5 mph - N/A Fog Fog
1:45 AM 46.4 °F - 44.6 °F 93% 29.93 in 0.2 mi Calm Calm - N/A Fog Fog
1:55 AM 45.1 °F - 44.8 °F 99% 29.93 in 0.2 mi Calm Calm - N/A Fog Fog
1:56 AM 44.6 °F - 44.6 °F 100% 29.93 in 0.2 mi Calm Calm - N/A Fog Fog
2:01 AM 46.4 °F - 44.6 °F 93% 29.94 in 0.2 mi Calm Calm - N/A Fog Fog
2:04 AM 46.4 °F 45.2 °F 44.6 °F 93% 29.94 in 0.2 mi West 3.5 mph - N/A Fog Fog
2:05 AM 46.4 °F 45.2 °F 46.4 °F 100% 29.94 in 0.2 mi West 3.5 mph - N/A Fog Fog
2:10 AM 46.4 °F - 44.6 °F 93% 29.94 in 0.2 mi Calm Calm - N/A Fog Fog
2:16 AM 46.4 °F - 44.6 °F 93% 29.94 in 0.2 mi Calm Calm - N/A Fog Fog
2:17 AM 46.4 °F - 44.6 °F 93% 29.94 in 0.5 mi Calm Calm - N/A Fog Fog
2:21 AM 46.4 °F - 44.6 °F 93% 29.94 in 0.8 mi Calm Calm - N/A   Scattered Clouds
2:22 AM 46.4 °F - 44.6 °F 93% 29.94 in 1.0 mi Calm Calm - N/A   Scattered Clouds
2:23 AM 44.6 °F - 44.6 °F 100% 29.94 in 1.5 mi Calm Calm - N/A   Scattered Clouds
2:24 AM 44.6 °F - 44.6 °F 100% 29.94 in 3.0 mi Calm Calm - N/A   Scattered Clouds
2:29 AM 46.4 °F - 44.6 °F 93% 29.94 in 1.8 mi Calm Calm - N/A   Scattered Clouds
2:30 AM 46.4 °F - 44.6 °F 93% 29.94 in 1.2 mi Calm Calm - N/A   Scattered Clouds
2:31 AM 46.4 °F - 44.6 °F 93% 29.94 in 1.0 mi Calm Calm - N/A   Scattered Clouds
2:32 AM 44.6 °F - 44.6 °F 100% 29.94 in 0.8 mi Calm Calm - N/A   Scattered Clouds
2:34 AM 44.6 °F - 44.6 °F 100% 29.94 in 0.5 mi Calm Calm - N/A Fog Fog
2:35 AM 44.6 °F - 44.6 °F 100% 29.93 in 0.5 mi Calm Calm - N/A Fog Fog
2:37 AM 44.6 °F - 44.6 °F 100% 29.94 in 0.5 mi Calm Calm - N/A Fog Fog
2:39 AM 44.6 °F 43.1 °F 44.6 °F 100% 29.93 in 0.8 mi West 3.5 mph - N/A   Scattered Clouds
2:41 AM 44.6 °F 43.1 °F 44.6 °F 100% 29.93 in 1.0 mi West 3.5 mph - N/A   Partly Cloudy
2:42 AM 44.6 °F 42.2 °F 44.6 °F 100% 29.93 in 1.2 mi West 4.6 mph - N/A   Partly Cloudy
2:43 AM 44.6 °F 42.2 °F 44.6 °F 100% 29.93 in 1.8 mi West 4.6 mph - N/A   Partly Cloudy
2:44 AM 44.6 °F 42.2 °F 44.6 °F 100% 29.93 in 2.5 mi West 4.6 mph - N/A   Partly Cloudy
2:45 AM 44.6 °F 42.2 °F 44.6 °F 100% 29.93 in 5.0 mi West 4.6 mph - N/A   Partly Cloudy
2:55 AM 45.1 °F 41.4 °F 44.6 °F 98% 29.93 in 10.0 mi West 6.9 mph - N/A   Partly Cloudy
3:55 AM 43.0 °F 40.3 °F 39.6 °F 88% 29.93 in 10.0 mi West 4.6 mph - N/A   Clear
4:55 AM 42.6 °F - 41.7 °F 97% 29.94 in 10.0 mi Calm Calm - N/A   Clear
5:23 AM 41.0 °F 39.0 °F 39.2 °F 93% 29.94 in 2.5 mi SSE 3.5 mph - N/A   Clear
5:25 AM 41.0 °F - 39.2 °F 93% 29.94 in 3.0 mi Calm Calm - N/A   Clear
5:28 AM 41.0 °F - 39.2 °F 93% 29.94 in 2.5 mi Calm Calm - N/A   Clear
5:30 AM 39.2 °F - 39.2 °F 100% 29.94 in 2.0 mi Calm Calm - N/A   Clear
5:31 AM 39.2 °F - 39.2 °F 100% 29.94 in 2.5 mi Calm Calm - N/A   Clear
5:32 AM 39.2 °F - 39.2 °F 100% 29.94 in 3.0 mi Calm Calm - N/A   Clear
5:34 AM 39.2 °F 37.0 °F 39.2 °F 100% 29.94 in 2.5 mi South 3.5 mph - N/A   Clear
5:37 AM 39.2 °F - 39.2 °F 100% 29.94 in 1.8 mi Calm Calm - N/A   Clear
5:38 AM 39.2 °F - 39.2 °F 100% 29.94 in 1.5 mi Calm Calm - N/A   Clear
5:45 AM 39.2 °F - 39.2 °F 100% 29.94 in 1.2 mi Calm Calm - N/A   Clear
5:49 AM 39.2 °F - 37.4 °F 93% 29.94 in 1.5 mi Calm Calm - N/A   Clear
5:50 AM 39.2 °F - 37.4 °F 93% 29.94 in 1.2 mi Calm Calm - N/A   Clear
5:51 AM 39.2 °F - 37.4 °F 93% 29.94 in 1.0 mi Calm Calm - N/A   Clear
5:53 AM 39.2 °F - 37.4 °F 93% 29.94 in 0.8 mi Calm Calm - N/A   Clear
5:55 AM 38.1 °F - 37.6 °F 98% 29.94 in 0.8 mi Calm Calm - N/A   Clear
5:56 AM 37.4 °F - 37.4 °F 100% 29.94 in 1.0 mi Calm Calm - N/A   Clear
5:58 AM 37.4 °F - 37.4 °F 100% 29.94 in 0.8 mi Calm Calm - N/A   Clear
5:59 AM 37.4 °F - 37.4 °F 100% 29.95 in 0.8 mi Calm Calm - N/A   Clear
6:03 AM 37.4 °F - 37.4 °F 100% 29.95 in 0.8 mi Calm Calm - N/A   Clear
6:04 AM 39.2 °F - 37.4 °F 93% 29.94 in 1.0 mi Calm Calm - N/A   Clear
6:07 AM 39.2 °F 37.0 °F 39.2 °F 100% 29.95 in 1.2 mi SSW 3.5 mph - N/A   Clear
6:09 AM 39.2 °F - 37.4 °F 93% 29.95 in 1.5 mi Calm Calm - N/A   Clear
6:10 AM 37.4 °F - 37.4 °F 100% 29.95 in 1.8 mi Calm Calm - N/A   Clear
6:11 AM 37.4 °F 34.9 °F 37.4 °F 100% 29.95 in 2.0 mi SSW 3.5 mph - N/A   Clear
6:18 AM 39.2 °F 37.0 °F 37.4 °F 93% 29.95 in 2.5 mi South 3.5 mph - N/A   Clear
6:19 AM 39.2 °F 37.0 °F 37.4 °F 93% 29.95 in 3.0 mi South 3.5 mph - N/A   Clear
6:29 AM 37.4 °F - 37.4 °F 100% 29.95 in 2.5 mi Calm Calm - N/A   Clear
6:30 AM 37.4 °F - 37.4 °F 100% 29.95 in 2.0 mi Calm Calm - N/A   Clear
6:32 AM 37.4 °F - 37.4 °F 100% 29.95 in 1.8 mi Calm Calm - N/A   Clear
6:33 AM 37.4 °F - 37.4 °F 100% 29.95 in 1.5 mi Calm Calm - N/A   Clear
6:36 AM 37.4 °F - 37.4 °F 100% 29.95 in 1.2 mi Calm Calm - N/A   Clear
6:37 AM 37.4 °F - 37.4 °F 100% 29.95 in 1.5 mi Calm Calm - N/A   Clear
6:38 AM 37.4 °F - 37.4 °F 100% 29.95 in 1.8 mi Calm Calm - N/A   Clear
6:39 AM 37.4 °F - 37.4 °F 100% 29.95 in 2.0 mi Calm Calm - N/A   Clear
6:40 AM 37.4 °F - 37.4 °F 100% 29.95 in 1.8 mi Calm Calm - N/A   Clear
6:41 AM 37.4 °F - 37.4 °F 100% 29.95 in 1.5 mi Calm Calm - N/A   Clear
6:44 AM 37.4 °F - 35.6 °F 93% 29.95 in 1.2 mi Calm Calm - N/A   Clear
6:50 AM 37.4 °F - 35.6 °F 93% 29.95 in 1.5 mi Calm Calm - N/A   Clear
6:53 AM 35.6 °F - 35.6 °F 100% 29.95 in 1.8 mi Calm Calm - N/A   Clear
6:55 AM 35.8 °F - 35.2 °F 98% 29.95 in 10.0 mi Calm Calm - N/A Fog Shallow Fog
7:55 AM 36.9 °F - 36.3 °F 98% 29.96 in 10.0 mi Calm Calm - N/A Fog Shallow Fog
8:55 AM 49.5 °F - 42.4 °F 77% 29.97 in 10.0 mi WNW 8.1 mph - N/A   Scattered Clouds
9:55 AM 52.2 °F - 39.0 °F 61% 29.98 in 10.0 mi NW 21.9 mph 32.2 mph N/A   Clear
10:55 AM 53.4 °F - 36.5 °F 53% 29.98 in 10.0 mi WNW 21.9 mph 34.5 mph 0.01 in   Scattered Clouds
11:55 AM 54.9 °F - 36.1 °F 49% 29.97 in 10.0 mi WNW 17.3 mph 21.9 mph N/A   Mostly Cloudy
12:55 PM 56.8 °F - 35.8 °F 45% 29.94 in 10.0 mi WNW 19.6 mph 28.8 mph N/A   Partly Cloudy
1:55 PM 57.9 °F - 35.2 °F 43% 29.92 in 10.0 mi WNW 23.0 mph 29.9 mph N/A   Clear
2:55 PM 58.1 °F - 34.3 °F 41% 29.92 in 10.0 mi WNW 19.6 mph 31.1 mph N/A   Clear
3:55 PM 57.0 °F - 33.8 °F 42% 29.94 in 10.0 mi West 23.0 mph 31.1 mph N/A   Clear
4:55 PM 55.4 °F - 33.1 °F 43% 29.94 in 10.0 mi NW 23.0 mph 29.9 mph N/A   Clear
5:55 PM 53.1 °F - 33.3 °F 47% 29.97 in 10.0 mi WNW 13.8 mph 23.0 mph N/A   Clear
6:55 PM 50.7 °F - 33.6 °F 52% 29.99 in 10.0 mi WNW 11.5 mph - N/A   Clear
7:55 PM 49.8 °F - 34.0 °F 55% 30.00 in 10.0 mi West 6.9 mph - N/A   Clear
8:55 PM 48.4 °F - 34.2 °F 58% 30.00 in 10.0 mi West 9.2 mph - N/A   Clear
9:55 PM 45.1 °F 40.8 °F 34.3 °F 66% 30.00 in 10.0 mi West 8.1 mph - N/A   Clear
10:55 PM 43.9 °F - 34.9 °F 71% 30.01 in 10.0 mi Calm Calm - N/A   Clear
11:55 PM 38.7 °F 34.3 °F 32.7 °F 79% 30.02 in 10.0 mi West 5.8 mph - N/A   Clear